QPF
0.02 0.01 0.01 0.02 0.02 0.02 0.02 0.01 0.02 0.02 0.01 0.01 0.00 0.01 0.01 0.01 0.01 0.01 0.01 0.01 0.01 0.01 0.01 0.01 0.03 0.05 0.04 0.06 0.09 0.09 0.10 0.11 0.12 0.11 0.09 0.08 0.07 0.07 0.07 0.06 0.06 0.06 0.06
0.02 0.03 0.02 0.02 0.02 0.02 0.02 0.01 0.01 0.02 0.01 0.01 0.01 0.01 0.01 0.01 0.01 0.01 0.01 0.01 0.01 0.01 0.01 0.01 0.03 0.05 0.05 0.04 0.07 0.10 0.10 0.10 0.12 0.12 0.10 0.08 0.08 0.09 0.08 0.07 0.08 0.07 0.07
0.00 0.02 0.03 0.03 0.03 0.03 0.02 0.01 0.01 0.02 0.02 0.01 0.01 0.01 0.02 0.01 0.01 0.01 0.01 0.01 0.00 0.00 0.01 0.01 0.02 0.03 0.05 0.04 0.04 0.07 0.08 0.08 0.09 0.10 0.10 0.09 0.08 0.08 0.09 0.08 0.08 0.08 0.09
0.00 0.01 0.01 0.03 0.03 0.03 0.02 0.02 0.02 0.02 0.03 0.02 0.01 0.01 0.02 0.02 0.02 0.02 0.01 0.01 0.01 0.01 0.01 0.01 0.01 0.01 0.04 0.05 0.04 0.04 0.04 0.05 0.06 0.08 0.09 0.09 0.09 0.07 0.08 0.09 0.09 0.09 0.08
0.00 0.00 0.01 0.01 0.02 0.03 0.03 0.03 0.02 0.03 0.04 0.04 0.03 0.02 0.02 0.02 0.02 0.02 0.02 0.01 0.01 0.01 0.01 0.01 0.00 0.00 0.01 0.03 0.04 0.03 0.03 0.03 0.03 0.05 0.08 0.09 0.08 0.07 0.07 0.08 0.09 0.11 0.09
0.00 0.00 0.01 0.01 0.01 0.02 0.02 0.03 0.03 0.03 0.03 0.04 0.04 0.03 0.02 0.02 0.02 0.02 0.01 0.01 0.01 0.00 0.00 0.00 0.00 0.00 0.00 0.01 0.02 0.03 0.02 0.02 0.02 0.02 0.04 0.07 0.09 0.08 0.07 0.06 0.07 0.08 0.09
0.00 0.00 0.00 0.01 0.01 0.02 0.02 0.02 0.03 0.03 0.03 0.03 0.04 0.03 0.03 0.02 0.02 0.02 0.01 0.01 0.01 0.01 0.00 0.00 0.01 0.00 0.00 0.00 0.01 0.02 0.02 0.02 0.02 0.01 0.02 0.04 0.06 0.08 0.08 0.07 0.06 0.06 0.07
0.00 0.00 0.01 0.01 0.01 0.01 0.01 0.02 0.02 0.02 0.02 0.02 0.02 0.02 0.02 0.01 0.01 0.01 0.01 0.01 0.01 0.01 0.01 0.00 0.00 0.01 0.00 0.00 0.00 0.01 0.02 0.02 0.02 0.02 0.02 0.02 0.05 0.07 0.08 0.09 0.08 0.08 0.07
0.01 0.01 0.01 0.01 0.01 0.01 0.01 0.01 0.01 0.01 0.01 0.01 0.01 0.01 0.01 0.01 0.01 0.01 0.01 0.01 0.01 0.01 0.01 0.00 0.00 0.00 0.01 0.01 0.01 0.01 0.01 0.02 0.02 0.02 0.02 0.02 0.03 0.05 0.08 0.08 0.10 0.10 0.08
0.01 0.01 0.01 0.01 0.01 0.01 0.01 0.01 0.01 0.01 0.01 0.01 0.01 0.01 0.01 0.01 0.01 0.01 0.01 0.01 0.01 0.00 0.00 0.00 0.00 0.00 0.00 0.01 0.01 0.01 0.01 0.01 0.02 0.02 0.03 0.03 0.03 0.04 0.05 0.07 0.08 0.08 0.07
0.01 0.01 0.01 0.01 0.01 0.01 0.01 0.01 0.01 0.01 0.01 0.01 0.01 0.01 0.01 0.01 0.01 0.01 0.01 0.00 0.00 0.00 0.00 0.00 0.00 0.00 0.00 0.00 0.01 0.01 0.01 0.01 0.01 0.02 0.02 0.03 0.03 0.04 0.05 0.05 0.06 0.07 0.06
0.01 0.01 0.01 0.01 0.01 0.01 0.01 0.01 0.01 0.01 0.00 0.00 0.00 0.00 0.00 0.00 0.00 0.00 0.00 0.00 0.00 0.00 0.00 0.00 0.00 0.00 0.00 0.00 0.01 0.01 0.01 0.01 0.01 0.01 0.02 0.03 0.03 0.03 0.04 0.05 0.05 0.05 0.06
0.01 0.01 0.01 0.01 0.00 0.01 0.01 0.01 0.01 0.01 0.01 0.00 0.00 0.00 0.00 0.00 0.00 0.00 0.00 0.00 0.00 0.00 0.00 0.00 0.00 0.00 0.00 0.00 0.01 0.01 0.01 0.01 0.01 0.01 0.01 0.02 0.03 0.03 0.03 0.04 0.05 0.05 0.05
0.01 0.01 0.01 0.01 0.00 0.00 0.01 0.01 0.01 0.01 0.02 0.02 0.01 0.00 0.01 0.01 0.01 0.00 0.00 0.00 0.00 0.00 0.00 0.00 0.00 0.00 0.00 0.00 0.00 0.01 0.01 0.01 0.01 0.01 0.01 0.01 0.02 0.02 0.03 0.03 0.04 0.05 0.06
0.00 0.00 0.00 0.00 0.00 0.00 0.00 0.00 0.01 0.01 0.01 0.02 0.02 0.02 0.01 0.01 0.01 0.01 0.01 0.00 0.00 0.00 0.00 0.00 0.00 0.00 0.00 0.00 0.00 0.01 0.01 0.01 0.01 0.01 0.01 0.01 0.02 0.02 0.02 0.03 0.04 0.05 0.07
0.00 0.00 0.00 0.00 0.00 0.00 0.00 0.00 0.00 0.00 0.01 0.01 0.01 0.02 0.02 0.02 0.02 0.01 0.01 0.00 0.00 0.00 0.00 0.00 0.00 0.00 0.00 0.00 0.00 0.01 0.01 0.01 0.01 0.01 0.01 0.02 0.02 0.02 0.02 0.03 0.04 0.06 0.07
0.00 0.00 0.00 0.00 0.00 0.00 0.00 0.00 0.00 0.00 0.00 0.01 0.01 0.01 0.02 0.02 0.02 0.02 0.01 0.01 0.00 0.00 0.00 0.00 0.00 0.00 0.00 0.00 0.00 0.01 0.01 0.01 0.01 0.01 0.01 0.02 0.02 0.02 0.02 0.02 0.03 0.03 0.04
0.00 0.00 0.00 0.00 0.00 0.00 0.00 0.00 0.00 0.00 0.00 0.01 0.01 0.01 0.01 0.02 0.02 0.02 0.01 0.01 0.00 0.00 0.00 0.00 0.00 0.00 0.00 0.00 0.00 0.01 0.01 0.01 0.01 0.01 0.01 0.01 0.01 0.02 0.02 0.03 0.03 0.02 0.02
0.00 0.00 0.00 0.01 0.01 0.00 0.00 0.00 0.01 0.01 0.01 0.01 0.01 0.01 0.01 0.01 0.01 0.01 0.01 0.01 0.00 0.00 0.00 0.00 0.00 0.00 0.00 0.00 0.00 0.01 0.01 0.01 0.01 0.01 0.01 0.01 0.01 0.01 0.02 0.02 0.03 0.02 0.02
0.00 0.00 0.01 0.01 0.01 0.01 0.01 0.00 0.01 0.01 0.01 0.01 0.01 0.01 0.01 0.02 0.02 0.01 0.01 0.00 0.00 0.00 0.00 0.00 0.00 0.00 0.00 0.00 0.00 0.01 0.01 0.01 0.00 0.00 0.00 0.01 0.01 0.02 0.02 0.03 0.03 0.04 0.03
0.00 0.00 0.00 0.00 0.01 0.01 0.01 0.01 0.01 0.01 0.01 0.01 0.01 0.01 0.01 0.01 0.01 0.01 0.01 0.01 0.01 0.00 0.00 0.00 0.00 0.00 0.00 0.00 0.00 0.01 0.01 0.01 0.01 0.01 0.00 0.00 0.01 0.02 0.03 0.03 0.04 0.04 0.05
0.00 0.00 0.00 0.00 0.00 0.00 0.00 0.00 0.00 0.01 0.00 0.00 0.00 0.00 0.00 0.00 0.00 0.00 0.01 0.01 0.01 0.01 0.00 0.00 0.00 0.00 0.00 0.00 0.00 0.01 0.01 0.02 0.02 0.01 0.01 0.00 0.01 0.02 0.02 0.03 0.04 0.04 0.04
0.00 0.00 0.00 0.00 0.00 0.00 0.00 0.00 0.00 0.00 0.00 0.00 0.00 0.00 0.00 0.00 0.00 0.00 0.00 0.00 0.01 0.01 0.01 0.01 0.01 0.01 0.01 0.01 0.01 0.01 0.01 0.01 0.02 0.01 0.01 0.01 0.02 0.02 0.02 0.01 0.02 0.02 0.03
0.00 0.00 0.00 0.00 0.00 0.00 0.00 0.00 0.00 0.00 0.00 0.00 0.00 0.00 0.00 0.00 0.00 0.00 0.00 0.00 0.01 0.01 0.01 0.01 0.01 0.01 0.01 0.01 0.01 0.02 0.02 0.02 0.02 0.02 0.01 0.01 0.01 0.01 0.01 0.00 0.01 0.01 0.01
0.00 0.00 0.00 0.00 0.00 0.00 0.00 0.00 0.00 0.00 0.00 0.00 0.00 0.00 0.00 0.00 0.00 0.00 0.00 0.01 0.01 0.01 0.02 0.02 0.02 0.02 0.02 0.01 0.02 0.04 0.03 0.03 0.03 0.03 0.02 0.01 0.01 0.00 0.00 0.00 0.00 0.01 0.01
0.01 0.00 0.00 0.00 0.00 0.00 0.00 0.00 0.00 0.00 0.00 0.00 0.00 0.00 0.00 0.00 0.00 0.00 0.00 0.00 0.00 0.00 0.01 0.02 0.02 0.03 0.02 0.03 0.03 0.03 0.03 0.03 0.03 0.03 0.02 0.01 0.01 0.01 0.01 0.01 0.01 0.00 0.01
MSLP
1006.10 1006.73 1007.45 1008.26 1009.13 1010.06 1011.04 1012.08 1013.16 1014.28 1015.40 1016.50 1017.54 1018.48 1019.32 1020.03 1020.64 1021.14 1021.58 1021.98 1022.38 1022.78 1023.21 1023.67 1024.15 1024.65 1025.16 1025.66 1026.16 1026.63 1027.07 1027.49 1027.87 1028.21 1028.51 1028.76 1028.97 1029.13 1029.24 1029.31 1029.35 1029.37 1029.37
1004.95 1005.60 1006.35 1007.18 1008.06 1009.00 1009.98 1011.03 1012.15 1013.31 1014.51 1015.69 1016.83 1017.89 1018.83 1019.64 1020.33 1020.91 1021.41 1021.86 1022.29 1022.73 1023.18 1023.65 1024.15 1024.65 1025.15 1025.64 1026.11 1026.56 1026.98 1027.38 1027.75 1028.09 1028.39 1028.66 1028.89 1029.09 1029.24 1029.36 1029.45 1029.52 1029.57
1003.81 1004.48 1005.26 1006.11 1007.01 1007.96 1008.95 1010.01 1011.15 1012.34 1013.58 1014.82 1016.03 1017.16 1018.18 1019.08 1019.84 1020.50 1021.07 1021.59 1022.08 1022.56 1023.05 1023.55 1024.06 1024.56 1025.05 1025.52 1025.96 1026.37 1026.76 1027.14 1027.49 1027.83 1028.14 1028.43 1028.69 1028.91 1029.10 1029.26 1029.39 1029.51 1029.60
1002.76 1003.45 1004.26 1005.14 1006.07 1007.03 1008.04 1009.11 1010.25 1011.45 1012.70 1013.96 1015.19 1016.35 1017.42 1018.36 1019.18 1019.90 1020.54 1021.13 1021.69 1022.23 1022.78 1023.32 1023.86 1024.37 1024.85 1025.30 1025.71 1026.10 1026.47 1026.82 1027.17 1027.51 1027.84 1028.15 1028.44 1028.69 1028.91 1029.10 1029.26 1029.39 1029.51
1001.88 1002.59 1003.43 1004.35 1005.30 1006.28 1007.31 1008.38 1009.52 1010.71 1011.94 1013.18 1014.39 1015.54 1016.59 1017.55 1018.39 1019.15 1019.84 1020.49 1021.12 1021.74 1022.35 1022.95 1023.53 1024.06 1024.56 1025.00 1025.41 1025.79 1026.14 1026.50 1026.85 1027.21 1027.56 1027.89 1028.20 1028.48 1028.73 1028.93 1029.10 1029.25 1029.37
1001.22 1001.96 1002.82 1003.76 1004.74 1005.75 1006.78 1007.86 1008.98 1010.14 1011.33 1012.52 1013.68 1014.78 1015.79 1016.71 1017.54 1018.31 1019.03 1019.73 1020.42 1021.11 1021.79 1022.45 1023.08 1023.66 1024.18 1024.65 1025.07 1025.45 1025.82 1026.19 1026.57 1026.95 1027.33 1027.69 1028.03 1028.33 1028.59 1028.80 1028.98 1029.11 1029.23
1000.83 1001.58 1002.46 1003.41 1004.40 1005.41 1006.44 1007.51 1008.61 1009.74 1010.88 1012.01 1013.10 1014.12 1015.07 1015.93 1016.72 1017.47 1018.20 1018.92 1019.65 1020.39 1021.14 1021.86 1022.54 1023.17 1023.74 1024.24 1024.69 1025.11 1025.51 1025.91 1026.31 1026.73 1027.14 1027.54 1027.91 1028.24 1028.51 1028.72 1028.89 1029.02 1029.13
1000.75 1001.49 1002.34 1003.27 1004.24 1005.23 1006.25 1007.29 1008.37 1009.46 1010.55 1011.62 1012.64 1013.59 1014.46 1015.26 1016.00 1016.72 1017.42 1018.15 1018.90 1019.67 1020.45 1021.22 1021.95 1022.63 1023.24 1023.78 1024.27 1024.72 1025.16 1025.60 1026.05 1026.50 1026.95 1027.39 1027.79 1028.14 1028.43 1028.65 1028.83 1028.95 1029.05
1000.99 1001.68 1002.47 1003.33 1004.24 1005.17 1006.14 1007.14 1008.18 1009.23 1010.28 1011.31 1012.27 1013.17 1013.98 1014.72 1015.42 1016.09 1016.76 1017.47 1018.21 1018.99 1019.78 1020.57 1021.33 1022.03 1022.68 1023.26 1023.78 1024.28 1024.75 1025.23 1025.72 1026.21 1026.70 1027.17 1027.60 1027.97 1028.29 1028.53 1028.72 1028.86 1028.97
1001.57 1002.17 1002.85 1003.59 1004.37 1005.20 1006.08 1007.02 1008.00 1009.01 1010.03 1011.02 1011.96 1012.82 1013.60 1014.30 1014.96 1015.59 1016.23 1016.90 1017.62 1018.37 1019.15 1019.93 1020.68 1021.39 1022.05 1022.65 1023.21 1023.73 1024.24 1024.75 1025.27 1025.80 1026.31 1026.81 1027.27 1027.68 1028.02 1028.30 1028.52 1028.68 1028.81
1002.50 1002.96 1003.47 1004.03 1004.65 1005.32 1006.07 1006.90 1007.81 1008.77 1009.75 1010.72 1011.64 1012.50 1013.27 1013.96 1014.59 1015.19 1015.80 1016.43 1017.10 1017.80 1018.54 1019.28 1020.01 1020.71 1021.36 1021.97 1022.54 1023.08 1023.62 1024.15 1024.69 1025.24 1025.78 1026.30 1026.78 1027.22 1027.59 1027.91 1028.16 1028.37 1028.54
1003.74 1004.02 1004.34 1004.68 1005.08 1005.56 1006.14 1006.83 1007.63 1008.51 1009.45 1010.39 1011.31 1012.16 1012.94 1013.63 1014.26 1014.84 1015.42 1016.01 1016.62 1017.27 1017.95 1018.64 1019.33 1020.00 1020.63 1021.24 1021.81 1022.37 1022.91 1023.46 1024.02 1024.57 1025.12 1025.65 1026.15 1026.61 1027.01 1027.36 1027.66 1027.91 1028.12
1005.24 1005.34 1005.43 1005.54 1005.71 1005.97 1006.35 1006.86 1007.52 1008.30 1009.17 1010.07 1010.96 1011.81 1012.59 1013.29 1013.92 1014.50 1015.05 1015.60 1016.16 1016.76 1017.37 1018.01 1018.65 1019.29 1019.90 1020.50 1021.08 1021.64 1022.20 1022.75 1023.31 1023.87 1024.42 1024.95 1025.45 1025.92 1026.34 1026.72 1027.05 1027.34 1027.59
1006.92 1006.83 1006.72 1006.60 1006.54 1006.57 1006.74 1007.07 1007.57 1008.21 1008.97 1009.80 1010.65 1011.47 1012.24 1012.94 1013.57 1014.14 1014.67 1015.19 1015.72 1016.26 1016.83 1017.42 1018.02 1018.63 1019.23 1019.82 1020.41 1020.98 1021.54 1022.11 1022.66 1023.22 1023.75 1024.27 1024.77 1025.23 1025.65 1026.04 1026.39 1026.71 1026.98
1008.66 1008.43 1008.14 1007.84 1007.58 1007.41 1007.38 1007.52 1007.83 1008.32 1008.95 1009.67 1010.43 1011.20 1011.94 1012.62 1013.24 1013.80 1014.32 1014.82 1015.32 1015.83 1016.37 1016.92 1017.50 1018.09 1018.68 1019.28 1019.87 1020.45 1021.03 1021.60 1022.15 1022.69 1023.21 1023.71 1024.18 1024.62 1025.03 1025.42 1025.77 1026.08 1026.36
1010.36 1010.02 1009.61 1009.18 1008.78 1008.46 1008.26 1008.22 1008.36 1008.68 1009.14 1009.73 1010.38 1011.07 1011.74 1012.39 1012.99 1013.54 1014.05 1014.55 1015.03 1015.52 1016.04 1016.57 1017.13 1017.72 1018.31 1018.92 1019.52 1020.12 1020.71 1021.28 1021.82 1022.35 1022.84 1023.31 1023.75 1024.16 1024.54 1024.90 1025.23 1025.54 1025.81
1011.89 1011.50 1011.05 1010.56 1010.09 1009.67 1009.35 1009.16 1009.15 1009.30 1009.60 1010.03 1010.55 1011.13 1011.73 1012.32 1012.89 1013.43 1013.94 1014.43 1014.91 1015.40 1015.90 1016.43 1016.98 1017.56 1018.16 1018.77 1019.38 1019.99 1020.58 1021.14 1021.68 1022.19 1022.65 1023.09 1023.49 1023.86 1024.20 1024.53 1024.83 1025.11 1025.36
1013.18 1012.81 1012.37 1011.90 1011.41 1010.96 1010.57 1010.29 1010.15 1010.15 1010.30 1010.58 1010.97 1011.43 1011.95 1012.48 1013.01 1013.54 1014.04 1014.53 1015.02 1015.51 1016.01 1016.53 1017.07 1017.64 1018.23 1018.83 1019.43 1020.04 1020.62 1021.17 1021.69 1022.17 1022.61 1023.01 1023.37 1023.70 1024.00 1024.29 1024.56 1024.81 1025.04
1014.22 1013.90 1013.53 1013.12 1012.68 1012.25 1011.85 1011.52 1011.30 1011.19 1011.21 1011.35 1011.62 1011.97 1012.40 1012.88 1013.38 1013.89 1014.40 1014.89 1015.38 1015.87 1016.36 1016.86 1017.38 1017.93 1018.49 1019.06 1019.64 1020.22 1020.77 1021.30 1021.80 1022.25 1022.65 1023.02 1023.34 1023.64 1023.91 1024.17 1024.41 1024.63 1024.84
1015.04 1014.79 1014.51 1014.20 1013.85 1013.48 1013.11 1012.77 1012.50 1012.32 1012.24 1012.28 1012.45 1012.72 1013.08 1013.51 1013.99 1014.48 1014.99 1015.48 1015.97 1016.45 1016.92 1017.39 1017.87 1018.37 1018.88 1019.41 1019.94 1020.47 1020.99 1021.48 1021.94 1022.36 1022.73 1023.07 1023.37 1023.64 1023.89 1024.12 1024.34 1024.54 1024.73
1015.73 1015.56 1015.37 1015.16 1014.91 1014.62 1014.30 1013.98 1013.69 1013.47 1013.33 1013.31 1013.40 1013.61 1013.92 1014.31 1014.77 1015.26 1015.75 1016.25 1016.72 1017.18 1017.62 1018.05 1018.48 1018.91 1019.35 1019.81 1020.28 1020.75 1021.21 1021.66 1022.08 1022.47 1022.82 1023.14 1023.42 1023.68 1023.91 1024.12 1024.32 1024.51 1024.69
1016.40 1016.28 1016.17 1016.05 1015.88 1015.66 1015.40 1015.12 1014.84 1014.60 1014.43 1014.37 1014.41 1014.58 1014.86 1015.22 1015.66 1016.14 1016.63 1017.10 1017.56 1017.99 1018.38 1018.75 1019.12 1019.48 1019.84 1020.22 1020.62 1021.02 1021.43 1021.84 1022.22 1022.59 1022.92 1023.22 1023.49 1023.74 1023.96 1024.17 1024.36 1024.54 1024.70
1017.13 1017.04 1016.98 1016.91 1016.80 1016.65 1016.43 1016.18 1015.92 1015.69 1015.51 1015.42 1015.44 1015.58 1015.83 1016.18 1016.59 1017.05 1017.52 1017.97 1018.39 1018.78 1019.12 1019.44 1019.73 1020.02 1020.31 1020.62 1020.95 1021.30 1021.65 1022.02 1022.38 1022.72 1023.04 1023.34 1023.60 1023.85 1024.07 1024.27 1024.45 1024.61 1024.75
1017.99 1017.89 1017.85 1017.80 1017.73 1017.60 1017.42 1017.20 1016.95 1016.73 1016.55 1016.46 1016.46 1016.58 1016.80 1017.12 1017.51 1017.93 1018.37 1018.78 1019.16 1019.50 1019.79 1020.04 1020.28 1020.50 1020.73 1020.99 1021.26 1021.57 1021.89 1022.23 1022.56 1022.90 1023.21 1023.50 1023.77 1024.01 1024.22 1024.41 1024.57 1024.71 1024.83
1018.98 1018.86 1018.80 1018.75 1018.67 1018.55 1018.39 1018.18 1017.95 1017.73 1017.56 1017.46 1017.45 1017.54 1017.74 1018.02 1018.37 1018.75 1019.13 1019.50 1019.83 1020.11 1020.35 1020.55 1020.74 1020.92 1021.11 1021.32 1021.57 1021.84 1022.14 1022.47 1022.80 1023.12 1023.43 1023.72 1023.98 1024.21 1024.41 1024.58 1024.72 1024.83 1024.91
1020.06 1019.91 1019.80 1019.72 1019.62 1019.49 1019.32 1019.12 1018.90 1018.69 1018.53 1018.42 1018.40 1018.47 1018.63 1018.86 1019.16 1019.48 1019.80 1020.10 1020.38 1020.61 1020.80 1020.96 1021.11 1021.26 1021.43 1021.62 1021.85 1022.12 1022.41 1022.72 1023.05 1023.36 1023.67 1023.94 1024.19 1024.41 1024.59 1024.74 1024.85 1024.92 1024.96
Thickness
5540 5537 5534 5530 5526 5522 5520 5517 5515 5512 5510 5507 5505 5503 5501 5501 5501 5502 5503 5503 5504 5505 5506 5507 5508 5509 5511 5512 5514 5516 5517 5517 5520 5522 5525 5527 5529 5531 5533 5534 5536 5538 5539
5531 5530 5527 5523 5519 5516 5513 5510 5507 5505 5503 5500 5498 5495 5492 5490 5490 5490 5491 5491 5492 5493 5494 5495 5495 5496 5498 5499 5500 5502 5502 5502 5504 5504 5508 5511 5516 5517 5519 5521 5522 5524 5526
5528 5525 5520 5516 5512 5509 5506 5504 5500 5497 5495 5492 5489 5486 5483 5480 5479 5479 5479 5479 5480 5481 5481 5482 5483 5484 5485 5485 5487 5487 5488 5488 5488 5489 5490 5493 5496 5498 5505 5507 5508 5509 5511
5523 5519 5515 5510 5506 5503 5499 5496 5492 5489 5486 5484 5481 5479 5475 5471 5469 5468 5467 5467 5468 5468 5469 5470 5471 5471 5472 5472 5473 5474 5474 5474 5474 5474 5474 5474 5475 5479 5486 5492 5493 5494 5496
5516 5513 5509 5505 5500 5495 5491 5487 5484 5480 5477 5474 5472 5469 5465 5462 5459 5457 5456 5456 5456 5456 5456 5457 5458 5458 5459 5459 5460 5460 5461 5461 5460 5459 5459 5460 5461 5462 5465 5473 5476 5478 5481
5508 5505 5500 5495 5490 5485 5481 5478 5474 5471 5468 5464 5462 5459 5455 5452 5449 5447 5445 5444 5444 5444 5444 5445 5446 5446 5446 5446 5446 5447 5447 5447 5446 5445 5445 5445 5446 5447 5448 5452 5456 5460 5464
5499 5494 5489 5485 5481 5476 5473 5469 5465 5462 5458 5455 5452 5449 5446 5443 5440 5437 5435 5433 5432 5432 5432 5432 5433 5433 5433 5433 5433 5433 5433 5433 5433 5432 5431 5431 5431 5432 5433 5436 5439 5442 5447
5490 5485 5481 5476 5472 5468 5464 5460 5457 5453 5450 5446 5442 5439 5436 5433 5430 5427 5425 5422 5421 5420 5420 5420 5420 5420 5420 5420 5420 5420 5420 5419 5419 5418 5417 5417 5417 5417 5418 5419 5420 5425 5430
5480 5475 5470 5466 5462 5459 5455 5452 5448 5445 5441 5437 5433 5429 5425 5422 5419 5417 5414 5412 5410 5409 5408 5408 5407 5407 5407 5407 5406 5405 5405 5404 5404 5403 5403 5402 5402 5402 5402 5403 5405 5406 5411
5468 5463 5459 5455 5452 5449 5445 5442 5439 5435 5431 5427 5423 5420 5416 5412 5409 5406 5403 5401 5399 5398 5396 5395 5394 5394 5394 5393 5392 5392 5391 5390 5389 5388 5388 5387 5387 5387 5388 5388 5390 5390 5392
5456 5452 5448 5444 5441 5438 5434 5431 5427 5424 5420 5417 5413 5409 5405 5401 5398 5395 5393 5390 5388 5387 5385 5384 5382 5381 5380 5379 5378 5378 5377 5376 5375 5373 5373 5372 5371 5372 5373 5373 5374 5375 5375
5445 5441 5437 5433 5430 5426 5423 5420 5416 5413 5410 5406 5402 5398 5394 5390 5387 5384 5382 5380 5377 5375 5374 5372 5370 5369 5367 5366 5365 5364 5362 5361 5359 5358 5358 5357 5357 5357 5357 5358 5359 5359 5360
5433 5429 5424 5421 5418 5415 5412 5409 5405 5402 5399 5395 5391 5387 5383 5379 5376 5373 5371 5368 5366 5363 5361 5359 5357 5356 5354 5353 5351 5349 5348 5346 5345 5343 5342 5342 5342 5342 5342 5343 5343 5345 5346
5423 5419 5414 5410 5407 5404 5400 5397 5394 5391 5387 5384 5380 5376 5372 5369 5366 5363 5360 5357 5354 5351 5349 5347 5344 5343 5341 5339 5337 5336 5335 5333 5331 5329 5328 5328 5327 5327 5327 5328 5329 5330 5331
5413 5408 5403 5399 5396 5392 5388 5385 5382 5379 5376 5372 5368 5365 5361 5358 5354 5351 5348 5345 5342 5339 5336 5334 5331 5329 5328 5326 5325 5323 5322 5320 5318 5316 5315 5315 5314 5314 5314 5315 5316 5316 5318
5402 5397 5392 5389 5385 5381 5377 5374 5370 5367 5363 5360 5356 5353 5350 5346 5343 5339 5336 5332 5329 5326 5323 5321 5318 5316 5315 5314 5313 5311 5309 5307 5305 5304 5303 5302 5302 5301 5302 5302 5303 5303 5304
5391 5386 5381 5377 5373 5369 5365 5361 5357 5354 5350 5347 5344 5341 5338 5334 5331 5327 5324 5320 5317 5313 5310 5308 5305 5303 5302 5301 5300 5299 5296 5294 5292 5290 5289 5289 5289 5288 5288 5289 5290 5291 5292
5380 5374 5369 5364 5360 5356 5352 5348 5344 5341 5337 5334 5330 5328 5325 5321 5318 5314 5311 5307 5304 5300 5298 5296 5293 5291 5290 5289 5288 5287 5284 5281 5279 5278 5277 5276 5275 5275 5276 5278 5279 5280 5281
5366 5361 5356 5352 5347 5343 5339 5335 5331 5328 5324 5321 5318 5315 5312 5309 5305 5301 5298 5294 5291 5288 5285 5283 5281 5279 5277 5276 5276 5274 5272 5270 5268 5267 5266 5265 5264 5265 5266 5267 5268 5269 5271
5352 5347 5342 5338 5334 5330 5326 5323 5318 5314 5311 5308 5305 5302 5299 5295 5292 5288 5285 5281 5278 5276 5273 5271 5269 5267 5265 5264 5263 5263 5261 5260 5258 5257 5255 5255 5255 5255 5255 5255 5256 5257 5260
5338 5334 5329 5324 5320 5316 5313 5309 5305 5301 5298 5295 5292 5289 5285 5282 5278 5275 5272 5269 5266 5263 5261 5259 5257 5255 5254 5253 5252 5251 5249 5248 5247 5246 5245 5244 5244 5245 5245 5246 5246 5247 5248
5324 5320 5315 5310 5306 5303 5300 5296 5292 5289 5285 5282 5279 5275 5271 5268 5266 5262 5259 5256 5253 5251 5248 5246 5245 5244 5242 5241 5240 5240 5239 5238 5236 5235 5234 5234 5234 5235 5235 5235 5236 5236 5236
5310 5306 5301 5296 5292 5289 5286 5282 5279 5275 5272 5268 5265 5261 5258 5255 5252 5249 5247 5244 5241 5238 5237 5235 5233 5233 5232 5230 5229 5229 5228 5227 5225 5225 5225 5224 5224 5224 5223 5223 5224 5224 5222
5296 5292 5288 5283 5279 5275 5272 5269 5266 5263 5259 5255 5251 5248 5245 5242 5239 5236 5234 5232 5229 5226 5225 5224 5223 5222 5220 5219 5218 5217 5216 5216 5215 5214 5213 5213 5212 5211 5211 5211 5210 5210 5210
5282 5278 5274 5270 5266 5262 5259 5257 5253 5250 5246 5242 5239 5236 5233 5229 5227 5225 5222 5220 5218 5216 5215 5214 5212 5211 5210 5209 5209 5207 5206 5205 5204 5203 5201 5200 5199 5198 5198 5198 5197 5198 5199
5268 5264 5260 5257 5253 5249 5246 5244 5241 5238 5234 5231 5227 5224 5221 5218 5216 5213 5211 5210 5209 5208 5206 5205 5203 5202 5201 5200 5199 5198 5196 5195 5194 5191 5188 5187 5186 5185 5185 5186 5186 5186 5187